Weather History for Weslaco, TX

Change the Weather History Date:

Wednesday, February 20, 2013

  Actual Average (KMFE) Record (KMFE)
Temperature  
Mean Temperature 74 °F 66 °F  
Max Temperature 81 °F 76 °F 96 °F (1986)
Min Temperature 66 °F 55 °F 35 °F (1879)
Degree Days  
Heating Degree Days 0 3  
Month to date heating degree days 85  
Since 1 July heating degree days 512  
Cooling Degree Days 8 4  
Month to date cooling degree days 62  
Year to date cooling degree days 124  
Growing Degree Days 24 (Base 50)    
Moisture  
Dew Point 64 °F    
Average Humidity 73    
Maximum Humidity 88    
Minimum Humidity 51    
Precipitation  
Precipitation 0.00 in 0.03 in 0.45 in (1952)
Month to date precipitation 0.84  
Year to date precipitation 1.89  
Sea Level Pressure  
Sea Level Pressure 29.82 in    
Wind  
Wind Speed 14 mph (SE)    
Max Wind Speed 28 mph    
Max Gust Speed 40 mph    
Visibility 9 miles    
Events      
T = Trace of Precipitation, MM = Missing Value Source: NWS Daily Summary

Daily Weather History Graph

Daily Weather History Graph

Search for Another Location

Airport:

Trip Planner

Search our weather history database for the weather conditions in past years. The results will help you decide how hot, cold, wet, or windy it might be!

Date:

Astronomy

Feb. 20, 2013 Rise Set
Actual Time 7:03 AM CST 6:28 PM CST
Civil Twilight 6:39 AM CST 6:51 PM CST
Nautical Twilight 6:12 AM CST 7:18 PM CST
Astronomical Twilight 5:46 AM CST 7:45 PM CST
Moon 2:07 PM CST (2/20) 3:07 AM CST (2/20)
Length of Visible Light 12h 11m
Length of Day
11h 25m
Waxing Gibbous, 76% of the Moon is Illuminated
Feb 20
Waxing Gibbous
Feb 25
Full
Mar 4
Last Quarter
Mar 11
New
Mar 19
First Quarter

Hourly Weather History & Observations

Time (CST) Temp. Heat Index Dew Point Humidity Pressure Visibility Wind Dir Wind Speed Gust Speed Precip Events Conditions
12:15 AM 66.6 °F - 61.9 °F 85% 29.99 in 10.0 mi ESE 12.7 mph 17.3 mph N/A   Scattered Clouds
12:35 AM 66.7 °F - 62.1 °F 85% 29.98 in 10.0 mi ESE 10.4 mph - N/A   Scattered Clouds
12:55 AM 66.7 °F - 62.1 °F 85% 29.98 in 10.0 mi SE 8.1 mph - N/A   Mostly Cloudy
1:15 AM 67.1 °F - 62.1 °F 84% 29.97 in 10.0 mi SE 8.1 mph - N/A   Overcast
1:35 AM 66.6 °F - 61.9 °F 85% 29.96 in 10.0 mi ESE 6.9 mph - N/A   Overcast
1:55 AM 66.6 °F - 62.1 °F 85% 29.96 in 10.0 mi ESE 10.4 mph - N/A   Overcast
2:15 AM 66.9 °F - 62.2 °F 85% 29.96 in 10.0 mi ESE 5.8 mph - N/A   Overcast
2:35 AM 67.3 °F - 62.6 °F 85% 29.96 in 10.0 mi ESE 5.8 mph - N/A   Overcast
3:15 AM 67.3 °F - 62.6 °F 85% 29.95 in 10.0 mi East 5.8 mph - N/A   Mostly Cloudy
3:35 AM 67.5 °F - 62.6 °F 84% 29.93 in 10.0 mi ESE 5.8 mph - N/A   Mostly Cloudy
3:55 AM 68.0 °F - 62.8 °F 83% 29.93 in 10.0 mi ESE 5.8 mph - N/A   Overcast
4:15 AM 68.0 °F - 63.0 °F 84% 29.93 in 10.0 mi East 5.8 mph - N/A   Overcast
4:55 AM 68.0 °F - 63.0 °F 84% 29.93 in 10.0 mi East 3.5 mph - N/A   Overcast
5:35 AM 68.0 °F - 63.5 °F 85% 29.93 in 10.0 mi ESE 3.5 mph - N/A   Overcast
5:55 AM 67.8 °F - 63.3 °F 85% 29.93 in 10.0 mi East 3.5 mph - N/A   Overcast
6:15 AM 67.1 °F - 63.0 °F 87% 29.93 in 10.0 mi East 4.6 mph - N/A   Overcast
6:35 AM 66.7 °F - 63.0 °F 88% 29.93 in 7.0 mi East 4.6 mph - N/A   Overcast
6:55 AM 66.7 °F - 63.1 °F 88% 29.93 in 7.0 mi ESE 3.5 mph - N/A   Mostly Cloudy
7:15 AM 67.8 °F - 64.2 °F 88% 29.94 in 7.0 mi SE 6.9 mph - N/A   Mostly Cloudy
7:35 AM 69.4 °F - 64.8 °F 85% 29.94 in 7.0 mi SE 8.1 mph - N/A   Overcast
7:55 AM 69.8 °F - 64.9 °F 84% 29.92 in 7.0 mi SSE 12.7 mph 18.4 mph N/A   Mostly Cloudy
8:15 AM 70.7 °F - 65.7 °F 84% 29.92 in 7.0 mi SSE 13.8 mph 20.7 mph N/A   Overcast
8:35 AM 71.1 °F - 65.8 °F 84% 29.92 in 7.0 mi SSE 12.7 mph 21.9 mph N/A   Overcast
9:15 AM 72.5 °F - 65.5 °F 79% 29.93 in 10.0 mi SSE 13.8 mph 20.7 mph N/A   Overcast
9:35 AM 73.6 °F - 65.5 °F 76% 29.93 in 7.0 mi SSE 17.3 mph 25.3 mph N/A   Overcast
9:55 AM 73.9 °F - 65.3 °F 74% 29.91 in 7.0 mi SSE 16.1 mph 24.2 mph N/A   Overcast
10:15 AM 75.9 °F - 64.4 °F 67% 29.90 in 7.0 mi SSE 19.6 mph 32.2 mph N/A   Mostly Cloudy
10:35 AM 77.0 °F - 64.2 °F 65% 29.89 in 7.0 mi SSE 19.6 mph 32.2 mph N/A   Overcast
10:55 AM 78.1 °F - 64.0 °F 62% 29.88 in 7.0 mi SSE 26.5 mph 31.1 mph N/A   Overcast
11:15 AM 78.3 °F - 63.7 °F 61% 29.87 in 7.0 mi SSE 21.9 mph 35.7 mph N/A   Overcast
11:35 AM 78.8 °F - 63.1 °F 59% 29.86 in 7.0 mi SSE 27.6 mph 33.4 mph N/A   Overcast
11:55 AM 79.9 °F - 63.1 °F 56% 29.85 in 5.0 mi SSE 25.3 mph 36.8 mph N/A   Haze
12:15 PM 79.0 °F - 62.1 °F 56% 29.84 in 7.0 mi SSE 25.3 mph 35.7 mph N/A   Overcast
12:35 PM 78.6 °F - 62.6 °F 58% 29.83 in 7.0 mi SSE 24.2 mph 35.7 mph N/A   Overcast
12:55 PM 79.2 °F - 62.2 °F 56% 29.82 in 5.0 mi South 25.3 mph 31.1 mph N/A   Haze
1:15 PM 81.0 °F 81.8 °F 61.5 °F 51% 29.82 in 7.0 mi South 26.5 mph 38.0 mph N/A   Mostly Cloudy
1:35 PM 80.6 °F 81.6 °F 61.5 °F 52% 29.80 in 7.0 mi South 20.7 mph 31.1 mph N/A   Mostly Cloudy
1:55 PM 79.9 °F - 61.3 °F 53% 29.77 in 7.0 mi South 26.5 mph 38.0 mph N/A   Mostly Cloudy
2:15 PM 79.3 °F - 61.7 °F 55% 29.75 in 7.0 mi SSE 26.5 mph 40.3 mph N/A   Scattered Clouds
2:55 PM 79.7 °F - 61.2 °F 53% 29.73 in 7.0 mi SSE 26.5 mph 39.1 mph N/A   Clear
3:15 PM 78.8 °F - 60.8 °F 54% 29.73 in 7.0 mi SSE 21.9 mph 34.5 mph N/A   Clear
3:35 PM 78.8 °F - 60.8 °F 54% 29.72 in 7.0 mi SSE 20.7 mph 34.5 mph N/A   Clear
3:55 PM 78.3 °F - 61.0 °F 55% 29.72 in 7.0 mi SSE 19.6 mph 27.6 mph N/A   Clear
4:15 PM 77.4 °F - 61.2 °F 57% 29.72 in 7.0 mi SSE 20.7 mph 34.5 mph N/A   Clear
4:35 PM 77.0 °F - 61.7 °F 59% 29.72 in 7.0 mi SSE 19.6 mph 29.9 mph N/A   Clear
4:55 PM 77.0 °F - 61.7 °F 59% 29.71 in 7.0 mi SSE 17.3 mph 27.6 mph N/A   Clear
5:15 PM 76.5 °F - 61.5 °F 60% 29.70 in 10.0 mi SSE 23.0 mph 32.2 mph N/A   Clear
5:35 PM 76.1 °F - 62.4 °F 62% 29.70 in 7.0 mi SSE 20.7 mph 32.2 mph N/A   Clear
5:55 PM 75.9 °F - 62.6 °F 63% 29.70 in 10.0 mi SSE 23.0 mph 32.2 mph N/A   Clear
6:15 PM 75.4 °F - 63.7 °F 67% 29.70 in 10.0 mi SSE 26.5 mph 33.4 mph N/A   Clear
6:35 PM 74.8 °F - 64.4 °F 70% 29.70 in 10.0 mi SSE 19.6 mph 28.8 mph N/A   Scattered Clouds
6:55 PM 74.3 °F - 64.9 °F 72% 29.70 in 10.0 mi SSE 15.0 mph 27.6 mph N/A   Scattered Clouds
7:15 PM 73.9 °F - 65.3 °F 74% 29.70 in 10.0 mi SSE 18.4 mph 25.3 mph N/A   Mostly Cloudy
7:35 PM 73.9 °F - 65.7 °F 75% 29.70 in 10.0 mi SSE 23.0 mph 32.2 mph N/A   Overcast
7:55 PM 73.8 °F - 65.8 °F 76% 29.69 in 10.0 mi SSE 23.0 mph 31.1 mph N/A   Overcast
8:15 PM 73.6 °F - 66.0 °F 77% 29.68 in 10.0 mi SSE 25.3 mph 33.4 mph N/A   Overcast
8:35 PM 73.6 °F - 66.2 °F 78% 29.68 in 10.0 mi SSE 25.3 mph 34.5 mph N/A   Overcast
8:55 PM 73.6 °F - 65.8 °F 77% 29.69 in 10.0 mi SSE 23.0 mph 31.1 mph N/A   Overcast
9:15 PM 73.4 °F - 65.7 °F 77% 29.69 in 10.0 mi SSE 23.0 mph 32.2 mph N/A   Overcast
9:35 PM 73.4 °F - 65.5 °F 76% 29.69 in 10.0 mi SSE 23.0 mph 34.5 mph N/A   Overcast
9:55 PM 73.4 °F - 65.5 °F 76% 29.69 in 10.0 mi South 23.0 mph 31.1 mph N/A   Overcast
10:35 PM 73.4 °F - 65.7 °F 77% 29.69 in 10.0 mi SSE 21.9 mph 31.1 mph N/A   Overcast
10:55 PM 73.4 °F - 65.7 °F 77% 29.68 in 10.0 mi SSE 24.2 mph 34.5 mph N/A   Overcast
11:15 PM 73.0 °F - 65.7 °F 78% 29.67 in 10.0 mi SSE 21.9 mph 31.1 mph N/A   Overcast
11:35 PM 73.4 °F - 65.8 °F 77% 29.66 in 10.0 mi SSE 27.6 mph 33.4 mph N/A   Overcast
11:55 PM 73.2 °F - 65.7 °F 77% 29.65 in 10.0 mi SSE 24.2 mph 33.4 mph N/A   Overcast